Regional Weather Roundup
Issued by NWS

Home | Current Version | Previous Version | Graphics & Text | Print | Product List | Glossary Off
Versions: 1 2 3 4 5 6 7 8 9 10 11 12 13 14 15 16 17 18 19 20 21 22 23 24 25 26 27 28 29 30 31 32 33 34 35 36 37 38 39 40 41 42 43 44 45 46 47 48 49 50

000
ASUS43 KLSX 172007
RWRMO

WEATHER SUMMARY FOR MISSOURI
NATIONAL WEATHER SERVICE SPRINGFIELD MO
200 PM CST FRI NOV 17 2017

NOTE: "FAIR" INDICATES FEW OR NO CLOUDS BELOW 12,000 FEET WITH NO
       SIGNIFICANT WEATHER AND/OR OBSTRUCTIONS TO VISIBILITY.
       CURRENT SKY AND/OR WEATHER CONDITIONS ARE NOT AVAILABLE FOR
       CHILLICOTHE AND FARMINGTON.

MOZ001>031-035>038-043-044-053-054-172100-
...NORTHERN AND WESTERN MISSOURI...

CITY           SKY/WX    TMP DP  RH WIND       PRES   REMARKS
KANSAS CTY INT CLOUDY    66  59  78 SW9       29.54F
KANSAS C DTWN  CLOUDY    65  57  75 SE5       29.54F
LEE`S SUMMIT   CLOUDY    64  60  87 S13       29.55F
ST JOSEPH      CLOUDY    63  57  81 S6        29.52F HAZE
CHILLICOTHE      N/A     57  56  96 S7        29.58F
KIRKSVILLE     CLOUDY    53  53 100 SE12      29.62F FOG

$$
MOZ066>068-077>081-088>096-101>105-172100-
...SOUTHWEST MISSOURI...

CITY           SKY/WX    TMP DP  RH WIND       PRES   REMARKS
SPRINGFIELD    CLOUDY    64  57  78 S16       29.66F
JOPLIN         CLOUDY    69  62  78 S22G33    29.63F
BRANSON        CLOUDY    63  57  82 SE8       29.75F

$$
MOZ032>034-039>042-045>050-055>058-069>072-172100-
...CENTRAL MISSOURI...

CITY           SKY/WX    TMP DP  RH WIND       PRES   REMARKS
COLUMBIA       CLOUDY    61  53  75 S14       29.66F
JEFFERSON CITY CLOUDY    63  52  67 S15       29.67F
ROLLA          CLOUDY    60  52  74 S16G29    29.71F
SEDALIA        PTSUNNY   66  58  75 S21G29    29.61F
WHITEMAN AFB   PTSUNNY   66  58  73 S22G28    29.54F
WARRENSBURG    PTSUNNY   64  55  72 S20G26    29.57F
OSAGE BEACH    CLOUDY    62  54  74 S9        29.68F

$$
MOZ051-052-059>065-172100-
...EAST CENTRAL MISSOURI...

CITY           SKY/WX    TMP DP  RH WIND       PRES   REMARKS
ST LOUIS INTL  PTSUNNY   54  43  66 S15G26    29.77F
SPIRIT OF STL  PTSUNNY   57  46  66 SE8       29.75F
ST CHARLES     PTSUNNY   55  43  63 SE17      29.77F

$$
MOZ072>076-082>087-097>100-106>115-172100-
...SOUTH CENTRAL AND SOUTHEAST MISSOURI...

CITY           SKY/WX    TMP DP  RH WIND       PRES   REMARKS
CAPE GIRARDEAU CLOUDY    54  45  71 SE13      29.89F
FARMINGTON     CLOUDY    53  45  74 S16       29.82F
POPLAR BLUFF   CLOUDY    61  50  67 SE9       29.87F
WEST PLAINS    CLOUDY    60  54  80 S15G22    29.79F

$$


USA.gov is the U.S. government's official web portal to all federal, state and local government web resources and services.